(504896) = 2010 XV47

Discovered at Catalina on 2010-10-11 by CSS.

Orbit

Orbit type: Main Belt

Note: WebGL enabled browser required.

epoch2023-02-25.0
epoch JD2460000.5
perihelion date2021-08-21.76136
perihelion JD2459448.26136
argument of perihelion (°)337.76755
ascending node (°)70.70712
inclination (°)7.70936
eccentricity0.1422954
perihelion distance (AU)2.0095753
Tisserand w.r.t. Jupiter3.5
ΔV w.r.t. Earth (km/sec)9.1
semimajor axis (AU)2.3429689
mean anomaly (°)151.76822
mean daily motion (°/day)0.27482360
aphelion distance (AU)2.676
period (years)3.59
P-vector [x]0.65972318
P-vector [y]0.70811130
P-vector [z]0.25168179
Q-vector [x]-0.74076586
Q-vector [y]0.55631544
Q-vector [z]0.37653562
absolute magnitude17.81
phase slope0.15
uncertainty0
referenceMPO 745323
observations used121
oppositions10
arc length (days)6587
first opposition used2005
last opposition used2023
residual rms (arc-secs)0.82
perturbers coarse indicatorM-v
perturbers precise indicator003Ek
first observation date used2005-04-15.0
last observation date used2023-04-28.0
computer nameMPCLINUX
JD of orbit computation2458053.096703
perihelion JD uncertainty (days)9.7230E-05
argument of perihelion uncertainty (°)4.8389E-05
ascending node uncertainty (°)3.8858E-05
inclination uncertainty (°)3.7806E-06
eccentricity uncertainty 4.4620E-08
perihelion distance uncertainty (AU)1.0800E-07
Minimum Orbit Intersection Distances (in AU)
for orbit epoch: 2460000.5, reference: E2023-HO4
Mercury1.69216
Venus1.28716
Earth1.02101
Mars0.50089
Jupiter2.67878
Saturn6.92973
Uranus15.9282
Neptune27.7955

Observations

123 total observations over interval: 2005 04 15.35431 – 2023 04 28.437977
These data are available for download (format description).

